Lapse_Rate
3.9 2.8 -0.1 -2.5 -0.1 -1.0 0.1 0.8 1.0 1.3 2.0 3.1 4.4 4.0 4.2 4.4 4.3 4.8 5.4 6.1 5.7 4.9 4.1 3.3 2.8 3.4 2.9 2.2 2.5 2.9 3.5 2.1 2.8 2.7 2.9 2.5 2.7 2.5 2.3 2.7 2.7 2.5 3.1
3.7 2.3 -0.9 -0.6 -2.0 -0.2 0.8 0.8 0.9 0.7 1.4 2.2 3.0 3.8 4.3 4.5 5.0 4.9 5.2 5.6 5.1 4.8 4.4 3.5 3.2 3.8 3.2 2.2 2.9 4.0 2.4 2.5 3.0 4.0 3.6 4.2 4.5 3.6 3.2 2.5 2.8 2.0 2.8
5.0 1.4 -0.3 0.3 -0.0 0.2 0.2 0.1 -0.2 0.4 1.2 2.2 2.4 3.1 3.7 4.5 4.6 4.7 5.0 5.3 5.3 4.9 4.7 3.7 3.7 4.2 3.8 3.4 3.2 3.6 4.7 4.4 2.8 4.4 3.6 4.4 4.6 3.8 2.5 2.8 2.8 2.4 1.7
4.2 1.9 0.6 0.1 -1.0 0.5 -0.1 -0.3 -0.3 -0.1 1.0 2.5 3.0 3.6 4.6 5.1 5.3 4.9 5.1 5.0 5.3 5.0 4.8 4.5 4.4 4.5 4.0 4.1 4.0 4.0 4.3 3.6 4.4 3.1 3.9 3.7 3.4 4.2 4.6 2.9 1.9 2.5 1.9
3.5 1.5 0.6 -0.4 -0.3 0.7 -0.5 -0.3 -0.0 0.4 2.3 3.0 3.3 3.1 3.5 3.5 4.0 5.0 5.3 5.2 5.2 5.2 5.0 5.2 4.9 4.9 4.5 4.1 4.1 4.3 3.4 4.3 4.5 4.6 3.2 3.1 2.2 2.2 3.0 3.0 2.1 1.4 0.8
4.9 2.4 1.9 1.4 0.7 0.5 0.6 -0.2 0.2 1.5 3.7 4.5 3.4 3.4 2.9 3.2 3.9 4.4 4.9 5.3 5.2 5.3 5.2 5.3 5.0 4.7 4.7 4.1 4.2 3.6 3.4 3.3 3.3 3.4 3.7 3.4 3.7 3.1 2.5 2.7 2.3 1.9 2.2
6.1 3.8 1.9 0.2 0.7 0.5 0.6 0.9 0.6 1.6 4.2 4.4 4.8 3.9 4.1 5.2 4.2 4.5 4.6 4.8 5.0 4.8 5.2 5.1 5.0 5.0 4.7 4.2 3.7 3.7 3.2 3.6 3.5 3.2 3.4 3.5 3.8 3.1 3.8 3.4 3.1 3.1 2.9
6.1 6.3 4.4 0.4 0.5 1.0 0.9 1.3 0.7 1.8 5.0 5.5 5.0 5.6 5.0 5.4 5.3 5.8 5.3 5.5 5.4 5.0 4.2 4.3 4.9 5.1 4.0 3.7 4.2 4.3 3.3 3.2 3.6 3.4 3.5 4.2 4.0 3.8 4.1 4.3 4.0 3.8 3.4
7.4 7.0 5.2 4.4 2.5 1.1 0.9 1.0 0.7 2.3 5.0 5.4 4.8 4.8 5.1 5.1 5.1 5.2 5.0 4.8 5.3 5.1 4.5 4.1 4.2 4.2 4.0 3.9 4.1 4.3 3.6 3.7 4.6 4.4 4.5 4.5 4.4 3.7 3.9 4.4 4.5 4.9 5.6
7.2 7.6 5.8 5.5 4.7 3.2 0.8 1.5 1.2 2.0 3.5 5.7 5.2 4.8 4.6 4.7 4.3 4.8 4.6 4.6 4.6 4.5 4.6 4.3 4.3 4.3 4.1 4.4 4.4 4.1 3.6 4.0 4.3 4.3 4.6 4.4 4.5 4.6 3.9 4.6 4.7 4.4 5.5
7.3 7.5 7.1 5.6 5.6 4.2 3.8 1.3 1.7 2.0 3.4 4.7 4.8 4.4 4.8 4.2 4.2 3.9 4.3 4.4 4.2 4.3 4.6 4.2 4.2 4.1 4.1 4.1 4.1 4.1 4.0 4.1 4.4 4.5 4.5 4.9 5.2 5.1 4.9 4.4 4.3 4.4 4.6
6.9 7.1 6.9 4.5 3.8 4.4 5.3 3.2 2.6 2.3 3.3 3.4 4.7 4.8 4.1 4.3 4.5 4.1 3.6 3.8 4.4 4.0 4.0 4.2 4.5 4.3 4.2 3.9 3.8 3.8 4.1 4.8 4.2 4.2 4.5 5.0 5.3 5.1 5.0 4.4 4.4 4.0 3.9
6.7 6.5 6.5 4.8 3.9 3.4 5.2 5.2 4.3 4.2 3.3 3.5 4.4 5.4 5.1 4.2 4.6 4.3 4.3 3.8 4.2 4.5 4.4 4.6 4.6 4.6 4.4 4.1 4.0 4.5 4.0 4.1 5.0 5.2 5.0 2.8 2.6 3.0 1.5 1.1 1.2 0.7 1.2
6.9 7.3 5.3 4.4 4.0 3.7 3.4 4.4 5.4 4.6 4.7 3.3 4.2 5.2 5.0 4.2 4.4 4.4 4.3 3.8 3.8 4.3 4.6 4.7 4.6 4.9 5.0 4.5 4.4 4.7 3.8 3.2 1.1 -0.6 -1.4 -1.7 -1.9 -1.3 -0.8 -1.4 -1.6 -0.8 -0.4
6.7 7.5 6.5 5.6 5.6 4.8 4.3 4.5 3.7 4.6 4.6 4.3 3.7 5.1 5.0 4.1 3.8 4.1 4.1 4.4 4.1 4.1 4.4 4.5 4.7 4.5 4.5 4.0 3.8 3.5 2.7 -0.5 -1.8 -2.5 -2.7 -3.1 -3.1 -3.4 -3.3 -2.9 -3.0 -1.9 -0.9
7.2 7.5 5.9 5.2 4.5 5.3 5.7 4.9 3.8 3.2 4.0 4.6 4.8 5.4 4.5 3.7 3.4 3.5 3.7 4.7 4.4 4.0 4.0 3.0 1.8 0.6 -0.3 -2.1 -0.2 0.8 -0.4 -1.7 -2.6 -3.2 -3.8 -3.7 -4.1 -4.3 -4.4 -3.8 -2.9 -1.9 -1.1
6.2 6.5 4.2 4.3 2.0 1.8 3.8 5.2 4.2 4.4 3.0 3.9 4.9 5.9 5.0 4.2 3.3 3.5 3.7 4.0 1.8 0.6 -0.5 -1.1 -1.6 -2.4 -2.5 -2.7 -2.5 -2.6 -2.8 -3.1 -3.6 -3.9 -4.1 -3.6 -3.2 -2.6 -2.1 -1.2 -1.3 -1.3 -0.5
6.0 4.7 4.8 2.8 1.9 1.6 1.3 4.0 4.8 4.5 4.3 4.2 4.3 5.0 4.8 4.7 4.5 3.6 1.2 -0.4 -0.8 -1.8 -2.3 -2.8 -3.3 -3.8 -4.2 -4.0 -4.2 -4.5 -4.9 -5.2 -4.9 -4.3 -3.9 -2.9 -2.2 -1.0 -0.6 -0.9 -0.8 -0.3 -0.9
5.9 4.9 3.5 3.5 1.8 -0.1 -0.2 3.5 5.3 4.7 4.8 3.5 4.6 5.0 4.4 3.0 1.4 -0.3 -1.5 -2.4 -2.8 -3.1 -3.8 -4.0 -3.9 -4.3 -4.9 -4.8 -4.7 -4.8 -5.5 -5.8 -5.5 -3.7 -2.3 -0.8 -0.1 0.6 0.5 -0.5 -0.5 0.1 0.3
5.0 3.7 2.6 2.5 1.6 -0.1 1.3 2.1 4.0 4.7 4.6 1.8 2.0 3.1 1.2 -0.0 -1.1 -2.2 -2.6 -3.4 -3.6 -4.3 -4.3 -4.4 -4.5 -4.6 -5.2 -4.9 -4.8 -4.9 -5.4 -5.3 -3.1 -0.0 0.4 1.0 -0.1 -0.2 -0.3 0.4 -0.6 -0.7 -0.7
3.8 3.4 2.2 1.4 1.4 1.1 0.7 1.2 0.7 -0.2 -1.1 -1.1 -1.2 -1.4 -0.5 -1.2 -2.4 -3.2 -3.3 -3.9 -4.3 -4.5 -4.6 -4.2 -4.0 -3.7 -3.4 -3.1 -2.4 -2.4 -2.6 -1.3 1.1 1.8 1.4 1.6 1.2 1.0 -0.1 -0.2 -0.3 -0.6 0.1
3.0 3.8 2.9 2.0 2.0 2.5 1.9 0.5 0.4 -0.5 -1.1 -2.2 -2.6 -4.1 -3.3 -3.3 -3.6 -4.1 -4.5 -4.4 -4.6 -4.9 -4.6 -3.8 -2.9 -1.1 -0.2 0.6 0.9 0.9 0.5 1.2 0.6 1.3 1.9 2.4 0.8 -0.1 0.2 -0.7 -0.5 0.2 0.1
5.1 4.5 2.6 1.6 0.8 1.7 1.4 0.7 0.5 0.5 -1.5 -2.4 -3.9 -4.6 -4.9 -5.0 -4.4 -3.8 -4.1 -3.5 -3.0 -1.9 -1.8 -0.5 0.4 1.6 2.3 2.5 2.4 2.0 1.6 1.3 0.8 1.7 1.7 0.7 1.3 1.0 0.1 -0.3 -0.2 -0.2 -0.3
5.4 5.0 3.5 2.6 1.5 0.3 0.7 0.8 1.0 0.7 -0.9 -2.4 -2.1 -3.5 -3.5 -3.2 -2.1 -1.8 -2.0 -2.2 -0.8 -0.8 1.4 1.3 1.5 2.4 2.2 1.7 1.5 1.5 1.5 1.5 0.2 -0.7 -0.5 -0.4 -0.4 -0.6 -0.3 0.5 0.2 0.7 1.2
5.5 5.1 4.0 3.2 2.4 1.6 0.6 1.0 0.1 -0.2 -1.9 -2.6 -2.1 -2.2 -2.1 -1.6 -0.9 -0.7 0.2 0.3 1.4 1.5 2.9 4.3 3.5 2.6 1.8 1.7 0.6 0.2 0.3 0.0 0.5 -0.8 0.4 0.8 0.7 0.3 0.7 1.3 1.7 1.2 0.8
4.2 5.2 4.5 3.9 3.5 2.4 1.2 1.7 1.4 0.2 -1.6 -1.8 -0.7 -0.1 0.3 1.0 1.4 1.7 2.1 1.8 1.4 1.5 1.3 1.6 2.0 2.4 3.0 3.1 3.3 2.6 2.1 1.8 1.3 -0.2 -0.1 0.1 0.7 1.2 1.5 0.9 0.3 0.3 0.6
Wind_Speed
15 8 6 10 7 11 13 14 13 10 8 6 7 5 4 4 3 2 13 12 14 16 12 10 11 10 11 11 11 7 9 3 5 5 4 3 2 3 3 6 7 9 13
9 7 6 11 17 14 15 13 13 12 7 6 2 3 4 3 3 4 10 12 13 15 11 12 11 12 10 10 11 11 4 3 7 4 3 3 2 1 2 3 4 5 7
11 9 9 11 11 17 16 15 14 13 8 6 4 4 4 4 3 5 6 9 13 14 13 14 12 13 11 11 12 11 11 6 2 8 4 3 4 3 2 6 4 5 4
10 9 11 11 15 15 12 12 13 12 9 8 6 9 5 7 4 6 6 7 10 13 13 13 14 15 11 13 11 9 9 6 10 2 1 3 5 3 2 1 3 4 6
11 11 15 17 12 10 12 11 12 12 11 9 7 6 5 3 4 6 9 9 9 14 13 14 15 14 11 12 14 11 6 6 9 6 3 2 3 3 3 2 2 1 4
10 10 13 11 10 8 8 11 13 13 11 10 8 8 8 6 4 6 7 9 8 11 14 15 14 13 12 11 11 9 9 7 7 3 4 4 3 3 3 2 2 2 3
19 13 11 15 16 16 13 11 14 12 12 11 11 9 8 8 8 7 8 9 9 10 18 15 14 12 13 11 9 10 9 9 10 6 3 2 3 3 2 2 2 2 2
22 22 14 18 18 18 15 14 15 14 14 12 10 8 8 5 6 8 7 8 10 7 15 15 14 14 13 12 12 8 8 7 7 7 4 3 2 2 2 2 4 3 3
21 23 6 11 15 18 18 16 15 15 13 12 9 8 8 7 7 7 7 7 12 10 13 17 15 14 15 14 13 8 9 8 7 9 4 2 2 3 3 3 3 4 4
26 21 2 6 9 12 14 13 13 15 11 11 10 8 10 7 6 6 6 5 6 11 12 13 15 15 14 16 15 12 10 8 6 6 8 6 5 4 4 6 6 5 8
24 21 13 6 6 6 9 13 12 12 12 11 9 8 9 8 7 6 7 6 6 10 9 13 13 16 16 15 12 11 12 11 8 6 8 10 9 6 6 5 4 6 7
24 20 18 7 8 6 8 9 11 12 11 10 10 8 8 9 8 6 6 8 8 8 10 9 11 12 14 15 13 12 10 10 10 9 9 9 4 7 6 4 6 5 4
24 21 17 5 6 10 7 7 6 8 11 11 10 9 9 9 8 7 7 7 8 9 9 10 9 9 10 10 11 10 11 10 10 6 5 3 3 2 2 1 1 1 1
23 13 12 6 7 9 10 9 8 6 7 10 12 10 10 9 8 8 8 7 7 9 10 10 9 9 10 10 10 10 8 9 8 9 8 6 5 4 3 4 4 3 3
16 15 13 6 5 8 10 10 10 6 6 8 10 11 9 9 9 8 9 8 7 7 8 9 8 7 7 6 8 7 9 11 11 11 12 12 17 21 13 5 6 6 5
15 14 12 10 7 7 7 9 11 12 8 7 9 10 10 9 10 9 9 9 8 6 5 7 7 6 3 2 10 12 11 12 13 13 12 12 18 21 24 25 26 15 8
11 14 13 14 14 11 9 9 11 10 13 10 6 7 8 8 9 9 9 8 8 8 9 9 9 8 7 14 19 20 11 12 12 12 12 11 8 13 13 20 20 19 21
10 12 10 12 13 13 9 8 10 12 12 10 10 9 8 7 7 7 8 8 7 9 9 9 9 11 9 18 25 25 16 14 13 12 11 12 11 10 12 13 14 14 14
7 8 8 9 11 12 10 7 12 12 11 13 10 9 9 8 9 9 9 9 11 10 10 9 10 12 11 17 20 23 15 16 14 12 12 12 12 17 17 13 12 13 11
7 9 10 9 9 12 10 9 4 6 6 12 12 9 10 11 11 12 11 9 11 12 10 12 12 16 13 17 18 18 13 16 12 13 13 18 16 20 17 11 11 11 9
7 9 8 8 10 10 8 9 8 9 6 9 10 12 10 11 12 12 12 12 13 13 13 14 12 13 13 14 21 21 13 11 11 10 10 10 24 24 23 19 11 11 9
8 8 7 8 9 9 7 8 10 7 8 11 11 14 12 9 9 13 12 12 13 16 14 15 13 11 12 19 23 24 22 19 13 12 9 12 22 24 22 17 22 20 13
6 6 7 8 9 10 8 9 7 8 11 12 14 13 13 11 11 13 12 11 12 9 12 11 12 12 11 12 27 26 26 24 15 11 18 26 23 22 20 24 21 16 8
8 7 8 8 9 10 10 9 9 9 13 16 14 15 15 15 13 10 9 9 9 10 8 10 11 11 11 11 11 11 13 23 16 15 12 16 16 16 13 11 13 9 6
7 6 7 8 8 9 10 9 11 12 14 15 14 14 13 15 15 14 11 12 12 13 13 9 9 8 9 8 14 14 9 9 10 12 8 7 7 7 7 7 7 6 6
8 6 8 8 7 9 11 10 9 12 13 14 11 10 11 12 13 14 16 29 25 26 25 21 13 11 19 25 23 24 23 21 18 10 8 7 6 5 6 5 6 6 7
Wind_Direction
288 273 173 146 155 150 157 171 164 164 156 159 175 172 166 172 164 220 158 170 160 153 152 156 158 166 167 170 173 171 163 101 127 108 79 49 85 167 167 200 189 188 195
287 272 180 176 166 172 171 171 166 160 169 150 151 138 149 142 137 159 160 165 163 167 164 164 165 172 170 172 175 178 141 110 164 140 123 120 31 288 200 220 207 195 201
264 246 193 194 173 178 176 174 163 161 163 139 124 107 97 111 146 148 172 170 172 165 172 174 171 177 178 182 180 182 175 159 188 172 140 139 191 142 173 218 215 186 203
244 224 194 189 184 191 173 165 159 156 156 155 150 162 151 163 177 175 167 175 173 178 178 183 182 183 180 181 185 186 179 158 175 95 110 90 137 159 154 226 226 221 211
231 216 201 201 190 180 173 159 156 156 157 164 168 158 151 132 137 170 183 187 183 191 185 186 187 186 184 184 179 186 170 167 170 167 145 105 80 67 125 164 237 274 228
272 234 213 173 174 163 180 160 162 170 161 168 175 173 158 150 160 172 180 196 196 199 190 188 184 184 181 180 184 175 160 154 141 146 138 148 154 174 119 132 173 205 236
348 297 185 178 177 175 178 173 168 171 175 177 179 174 165 170 185 191 199 203 207 199 192 183 181 182 179 163 158 162 151 152 152 140 144 92 133 97 136 117 114 356 283
348 325 218 186 181 176 174 178 173 171 178 178 180 176 163 181 206 212 206 213 214 206 179 175 174 175 162 155 154 154 146 127 134 136 129 117 80 125 162 199 141 230 252
342 327 211 201 185 172 177 180 171 175 183 179 170 172 167 184 196 205 220 233 218 179 182 170 166 162 157 156 154 155 134 139 159 166 142 149 191 208 207 199 188 184 257
332 337 211 203 201 184 170 173 172 180 179 175 175 169 166 175 161 161 167 173 145 158 168 161 171 163 162 160 160 156 144 157 159 158 176 192 210 214 207 220 225 213 238
323 321 311 191 170 162 191 167 168 172 178 177 176 164 157 158 161 157 151 138 139 145 152 154 157 154 153 150 152 151 159 157 168 169 191 212 212 221 229 218 217 225 220
310 310 324 175 141 145 199 188 177 175 179 173 172 170 159 151 156 152 149 143 136 142 147 153 151 150 152 150 153 155 160 176 178 191 201 220 203 226 227 209 223 224 231
304 313 308 199 163 155 166 191 201 202 175 169 169 170 168 161 157 148 147 143 144 149 146 147 146 147 150 160 162 177 178 183 193 174 179 112 99 112 63 63 54 35 28
297 320 320 165 178 170 168 175 191 195 203 172 179 177 176 166 156 148 147 148 148 150 155 161 162 166 167 171 166 171 157 104 90 85 78 68 69 80 90 72 40 30 58
333 335 357 347 231 187 176 175 167 175 186 188 184 190 177 161 149 147 149 147 154 160 159 159 161 160 159 158 158 143 118 113 101 90 86 78 80 77 68 79 57 65 68
324 324 353 351 10 346 198 182 180 168 169 184 191 196 177 164 157 152 154 152 150 140 120 96 99 86 82 145 145 123 116 113 114 110 101 94 86 82 81 75 66 59 77
320 327 359 345 341 343 316 207 183 179 170 166 163 158 175 170 163 155 150 139 111 108 95 93 98 88 75 103 102 103 102 107 109 112 112 106 98 94 90 80 76 71 66
323 332 351 336 339 314 294 254 186 177 171 164 157 151 158 161 159 132 109 102 96 98 99 92 89 91 82 106 109 103 101 96 93 97 103 106 98 92 98 91 80 73 76
334 321 334 332 313 333 319 245 172 164 170 153 161 169 161 126 114 104 103 103 105 94 93 93 94 97 93 99 106 108 103 99 94 90 89 95 98 103 102 96 93 87 72
345 336 335 334 351 343 344 61 97 150 171 156 156 147 126 127 122 121 114 102 102 102 97 90 86 93 94 94 101 104 112 106 103 96 90 90 96 94 92 93 97 91 77
350 339 337 341 1 350 4 60 69 70 62 70 99 108 114 122 124 120 123 119 113 107 102 99 94 93 92 96 98 99 100 104 103 92 91 89 90 88 85 83 79 83 85
350 359 358 358 3 11 32 59 73 73 77 84 84 89 96 103 108 110 109 108 114 112 110 106 98 91 92 97 98 98 100 103 102 98 97 90 87 87 84 80 80 77 73
3 14 19 16 19 27 44 62 51 87 86 80 88 82 86 88 101 106 103 104 104 99 111 107 107 106 96 87 92 95 96 95 97 102 104 93 83 79 76 79 76 67 62
8 25 43 37 26 34 41 59 65 78 89 90 82 87 84 85 77 75 84 99 93 101 89 103 110 109 104 105 98 94 94 95 95 95 93 93 95 79 76 72 65 69 69
12 45 57 49 39 46 52 54 74 83 82 82 84 84 85 86 85 78 80 82 78 93 101 94 96 103 107 103 106 108 106 104 106 102 92 85 82 87 77 80 82 68 61
23 35 69 74 67 71 69 61 72 91 96 91 87 91 95 94 94 94 90 84 88 89 89 90 90 97 104 106 106 107 108 107 108 96 97 87 83 93 101 89 76 68 60